Home   Weather   Battle Ground   Past weeks
Flag for USA

Past Weather in Battle Ground, Washington, USA — Yesterday and Last 2 Weeks

Now
57 °F

Light rain. Overcast.


Feels Like: 57 °F
Forecast: 59 / 50 °F
Wind: 5 mph from Southeast

Location: Vancouver - Pearson Airpark

Current Time: May 20, 2019 at 4:16:21 pm

Latest Report: May 20, 2019 at 2:53 pm


Visibility: 10 mi

Pressure: 29.80 "Hg

Humidity: 62%

Dew Point: 44 °F

Location of Battle GroundLocation

Past Weather in Battle Ground — Graph

°F

Battle Ground Temperature Yesterday

Maximum temperature yesterday: 63 °F (at 2:53 pm)
Minimum temperature yesterday: 51 °F (at 4:53 am)
Average temperature yesterday: 57 °F

High & Low Weather Summary for the Past Weeks

 TemperatureHumidityPressure
High87 °F (May 10, 4:53 pm)97% (May 19, 1:36 am)30.22 "Hg (May 19, 1:36 am)
Low46 °F (May 6, 5:53 am)9% (May 10, 4:53 pm)29.49 "Hg (May 16, 3:53 am)
Average60 °F65%29.88 "Hg
* Reported May 5 2:53 pm — May 20 2:53 pm, Battle Ground. Weather by CustomWeather, © 2019

Note: Actual official high and low records may vary slightly from our data, if they occured in-between our weather recording intervals... More about our weather records

Advertising

Battle Ground Weather History for the Previous 24 Hours

Scroll right to see more
 ConditionsComfort  
Time TempWeatherWind HumidityBarometerVisibility
2:53 pm
Mon, May 20
57 °FLight rain. Overcast.5 mph62%29.80 "Hg10 mi
1:53 pm57 °FOvercast.5 mph62%29.81 "Hg10 mi
12:53 pm56 °FOvercast.6 mph67%29.82 "Hg10 mi
12:11 pm57 °FMostly cloudy.No wind67%29.83 "Hg10 mi
12:01 pm57 °FMostly cloudy.6 mph67%29.83 "Hg10 mi
11:02 am55 °FMore clouds than sun.7 mph72%29.83 "Hg10 mi
10:19 am55 °FMostly cloudy.6 mph72%29.83 "Hg10 mi
9:53 am55 °FMore clouds than sun.7 mph74%29.83 "Hg10 mi
9:42 am55 °FMostly cloudy.6 mph74%29.83 "Hg10 mi
8:53 am54 °FCloudy.No wind72%29.84 "Hg10 mi
7:53 am54 °FMore clouds than sun.3 mph77%29.83 "Hg10 mi
7:23 am54 °FOvercast.No wind74%29.83 "Hg10 mi
6:53 am54 °FOvercast.No wind74%29.83 "Hg10 mi
6:17 am54 °FMore clouds than sun.No wind77%29.82 "Hg10 mi
5:53 am54 °FOvercast.3 mph77%29.82 "Hg10 mi
4:53 am55 °FMostly cloudy.No wind74%29.82 "Hg10 mi
4:27 am55 °FMostly cloudy.No wind74%29.82 "Hg10 mi
4:05 am55 °FOvercast.No wind77%29.82 "Hg10 mi
3:53 am55 °FOvercast.No wind77%29.82 "Hg10 mi
3:41 am55 °FMostly cloudy.No wind77%29.82 "Hg10 mi
2:53 am55 °FMostly cloudy.No wind77%29.82 "Hg10 mi
1:53 am55 °FPassing clouds.3 mph74%29.81 "Hg10 mi
12:53 am56 °FPartly cloudy.No wind72%29.80 "Hg10 mi
11:53 pm
Sun, May 19
57 °FOvercast.5 mph72%29.80 "Hg10 mi
10:53 pm58 °FOvercast.5 mph75%29.81 "Hg10 mi
10:19 pm58 °FMostly cloudy.5 mph75%29.81 "Hg10 mi
10:11 pm58 °FMostly cloudy.3 mph75%29.81 "Hg10 mi
9:53 pm59 °FOvercast.6 mph69%29.80 "Hg10 mi
8:53 pm59 °FOvercast.3 mph75%29.79 "Hg10 mi
7:53 pm60 °FLight rain. Cloudy.6 mph75%29.78 "Hg10 mi
6:53 pm62 °FMore clouds than sun.7 mph65%29.77 "Hg10 mi
5:53 pm62 °FOvercast.6 mph62%29.76 "Hg10 mi
4:53 pm63 °FMore clouds than sun.8 mph60%29.75 "Hg10 mi
Weather by CustomWeather, © 2019

See weather overview